Time,TemperatureF,DewpointF,PressureIn,WindDirection,WindDirectionDegrees,WindSpeedMPH,WindSpeedGustMPH,Humidity,HourlyPrecipIn,Conditions,Clouds,dailyrainin,SoftwareType,DateUTC
2013-01-20 00:08:00,37.6,29.0,29.92,ENE,63,1.0,-999.0,71,-99.99,,,0.00,weatherlink.com 1.10,2013-01-20 05:08:00,
2013-01-20 00:23:00,37.6,29.0,29.90,SE,133,2.0,-999.0,72,-99.99,,,0.00,weatherlink.com 1.10,2013-01-20 05:23:00,
2013-01-20 00:38:00,37.2,29.0,29.89,ENE,71,0.0,-999.0,72,-99.99,,,0.00,weatherlink.com 1.10,2013-01-20 05:38:00,
2013-01-20 00:58:00,37.2,29.0,29.89,SSE,167,0.0,-999.0,73,-99.99,,,0.00,weatherlink.com 1.10,2013-01-20 05:58:00,
2013-01-20 01:10:00,37.1,29.0,29.88,ESE,115,5.0,-999.0,73,-99.99,,,0.00,weatherlink.com 1.10,2013-01-20 06:10:00,
2013-01-20 01:25:00,37.2,29.0,29.88,SE,130,0.0,-999.0,73,-99.99,,,0.00,weatherlink.com 1.10,2013-01-20 06:25:00,
2013-01-20 01:40:00,36.7,29.0,29.88,ESE,123,1.0,-999.0,74,-99.99,,,0.00,weatherlink.com 1.10,2013-01-20 06:40:00,
2013-01-20 01:55:00,36.6,29.0,29.87,SSE,148,7.0,-999.0,75,-99.99,,,0.00,weatherlink.com 1.10,2013-01-20 06:55:00,
2013-01-20 02:10:00,36.3,29.0,29.87,South,169,2.0,-999.0,75,-99.99,,,0.00,weatherlink.com 1.10,2013-01-20 07:10:00,
2013-01-20 02:25:00,36.0,29.0,29.87,East,84,0.0,-999.0,76,-99.99,,,0.00,weatherlink.com 1.10,2013-01-20 07:25:00,
2013-01-20 02:41:00,35.7,29.0,29.86,South,172,0.0,-999.0,76,-99.99,,,0.00,weatherlink.com 1.10,2013-01-20 07:41:00,
2013-01-20 02:56:00,35.7,29.0,29.85,West,280,1.0,-999.0,76,-99.99,,,0.00,weatherlink.com 1.10,2013-01-20 07:56:00,
2013-01-20 03:11:00,35.7,29.0,29.84,ESE,111,0.0,-999.0,76,-99.99,,,0.00,weatherlink.com 1.10,2013-01-20 08:11:00,
2013-01-20 03:26:00,35.9,29.0,29.84,West,277,0.0,-999.0,75,-99.99,,,0.00,weatherlink.com 1.10,2013-01-20 08:26:00,
2013-01-20 03:42:00,36.1,29.0,29.83,South,186,1.0,-999.0,74,-99.99,,,0.00,weatherlink.com 1.10,2013-01-20 08:42:00,
2013-01-20 03:57:00,35.9,28.0,29.82,SE,125,1.0,-999.0,74,-99.99,,,0.00,weatherlink.com 1.10,2013-01-20 08:57:00,
2013-01-20 04:13:00,35.2,28.0,29.81,NNE,23,0.0,-999.0,75,-99.99,,,0.00,weatherlink.com 1.10,2013-01-20 09:13:00,
2013-01-20 04:28:00,34.9,28.0,29.80,NNE,23,0.0,-999.0,75,-99.99,,,0.00,weatherlink.com 1.10,2013-01-20 09:28:00,
2013-01-20 04:43:00,34.8,28.0,29.80,NNE,23,0.0,-999.0,75,-99.99,,,0.00,weatherlink.com 1.10,2013-01-20 09:43:00,
2013-01-20 04:58:00,34.7,28.0,29.79,NNE,23,0.0,-999.0,75,-99.99,,,0.00,weatherlink.com 1.10,2013-01-20 09:58:00,
2013-01-20 05:13:00,34.4,27.0,29.78,SE,131,0.0,-999.0,75,-99.99,,,0.00,weatherlink.com 1.10,2013-01-20 10:13:00,
2013-01-20 05:30:00,34.3,27.0,29.78,ESE,111,0.0,-999.0,75,-99.99,,,0.00,weatherlink.com 1.10,2013-01-20 10:30:00,
2013-01-20 05:45:00,34.2,27.0,29.77,ESE,111,0.0,-999.0,76,-99.99,,,0.00,weatherlink.com 1.10,2013-01-20 10:45:00,
2013-01-20 06:00:00,33.8,27.0,29.76,ENE,67,0.0,-999.0,77,-99.99,,,0.00,weatherlink.com 1.10,2013-01-20 11:00:00,
2013-01-20 06:15:00,33.8,27.0,29.76,NE,49,0.0,-999.0,77,-99.99,,,0.00,weatherlink.com 1.10,2013-01-20 11:15:00,
2013-01-20 06:30:00,33.5,27.0,29.77,NE,49,1.0,-999.0,78,-99.99,,,0.00,weatherlink.com 1.10,2013-01-20 11:30:00,
2013-01-20 06:45:00,33.8,28.0,29.76,West,269,0.0,-999.0,78,-99.99,,,0.00,weatherlink.com 1.10,2013-01-20 11:45:00,
2013-01-20 07:01:00,33.8,27.0,29.76,NE,34,0.0,-999.0,77,-99.99,,,0.00,weatherlink.com 1.10,2013-01-20 12:01:00,
2013-01-20 07:15:00,34.1,28.0,29.76,West,263,0.0,-999.0,77,-99.99,,,0.00,weatherlink.com 1.10,2013-01-20 12:15:00,
2013-01-20 07:31:00,34.5,28.0,29.75,NW,326,0.0,-999.0,76,-99.99,,,0.00,weatherlink.com 1.10,2013-01-20 12:31:00,
2013-01-20 07:46:00,35.3,28.0,29.76,NW,326,2.0,-999.0,74,-99.99,,,0.00,weatherlink.com 1.10,2013-01-20 12:46:00,
2013-01-20 08:01:00,36.1,28.0,29.76,NW,326,1.0,-999.0,72,-99.99,,,0.00,weatherlink.com 1.10,2013-01-20 13:01:00,
2013-01-20 08:17:00,36.9,28.0,29.76,NW,326,1.0,-999.0,71,-99.99,,,0.00,weatherlink.com 1.10,2013-01-20 13:17:00,
2013-01-20 08:32:00,38.1,28.0,29.77,West,269,4.0,-999.0,68,-99.99,,,0.00,weatherlink.com 1.10,2013-01-20 13:32:00,
2013-01-20 08:47:00,39.6,29.0,29.77,WNW,282,2.0,-999.0,65,-99.99,,,0.00,weatherlink.com 1.10,2013-01-20 13:47:00,
2013-01-20 09:03:00,40.7,29.0,29.77,WNW,290,5.0,-999.0,63,-99.99,,,0.00,weatherlink.com 1.10,2013-01-20 14:03:00,
2013-01-20 09:18:00,42.0,29.0,29.77,West,261,3.0,-999.0,61,-99.99,,,0.00,weatherlink.com 1.10,2013-01-20 14:18:00,
2013-01-20 09:33:00,43.5,29.0,29.77,NW,309,7.0,-999.0,58,-99.99,,,0.01,weatherlink.com 1.10,2013-01-20 14:33:00,
2013-01-20 09:48:00,44.6,30.0,29.77,WNW,294,4.0,-999.0,57,-99.99,,,0.01,weatherlink.com 1.10,2013-01-20 14:48:00,
2013-01-20 10:05:00,45.8,30.0,29.77,SSW,200,3.0,-999.0,54,-99.99,,,0.01,weatherlink.com 1.10,2013-01-20 15:05:00,
2013-01-20 10:20:00,46.4,30.0,29.77,West,280,4.0,-999.0,54,-99.99,,,0.01,weatherlink.com 1.10,2013-01-20 15:20:00,
2013-01-20 10:35:00,47.3,31.0,29.77,West,267,6.0,-999.0,53,-99.99,,,0.01,weatherlink.com 1.10,2013-01-20 15:35:00,
2013-01-20 10:50:00,48.1,31.0,29.76,West,278,6.0,-999.0,52,-99.99,,,0.01,weatherlink.com 1.10,2013-01-20 15:50:00,
2013-01-20 11:05:00,48.5,31.0,29.75,SW,231,5.0,-999.0,51,-99.99,,,0.01,weatherlink.com 1.10,2013-01-20 16:05:00,
2013-01-20 11:20:00,48.7,31.0,29.75,West,263,9.0,-999.0,50,-99.99,,,0.01,weatherlink.com 1.10,2013-01-20 16:20:00,
2013-01-20 11:36:00,48.7,31.0,29.75,West,275,13.0,-999.0,50,-99.99,,,0.01,weatherlink.com 1.10,2013-01-20 16:36:00,
2013-01-20 11:51:00,48.5,30.0,29.75,West,263,8.0,-999.0,49,-99.99,,,0.01,weatherlink.com 1.10,2013-01-20 16:51:00,
2013-01-20 12:06:00,48.7,31.0,29.74,West,277,12.0,-999.0,50,-99.99,,,0.01,weatherlink.com 1.10,2013-01-20 17:06:00,
2013-01-20 12:21:00,48.5,28.0,29.74,West,277,11.0,-999.0,45,-99.99,,,0.01,weatherlink.com 1.10,2013-01-20 17:21:00,
2013-01-20 12:36:00,48.1,28.0,29.74,NW,305,9.0,-999.0,45,-99.99,,,0.01,weatherlink.com 1.10,2013-01-20 17:36:00,
2013-01-20 12:52:00,48.5,25.0,29.74,WSW,254,7.0,-999.0,40,-99.99,,,0.01,weatherlink.com 1.10,2013-01-20 17:52:00,
2013-01-20 13:07:00,48.9,25.0,29.74,West,273,6.0,-999.0,39,-99.99,,,0.01,weatherlink.com 1.10,2013-01-20 18:07:00,
2013-01-20 13:22:00,49.0,19.0,29.74,WNW,288,16.0,-999.0,30,-99.99,,,0.01,weatherlink.com 1.10,2013-01-20 18:22:00,
2013-01-20 13:37:00,48.8,18.0,29.75,WNW,290,14.0,-999.0,29,-99.99,,,0.01,weatherlink.com 1.10,2013-01-20 18:37:00,
2013-01-20 13:53:00,48.1,17.0,29.77,West,278,20.0,-999.0,29,-99.99,,,0.01,weatherlink.com 1.10,2013-01-20 18:53:00,
2013-01-20 14:08:00,48.1,19.0,29.77,NW,322,11.0,-999.0,32,-99.99,,,0.01,weatherlink.com 1.10,2013-01-20 19:08:00,
2013-01-20 14:24:00,47.6,20.0,29.78,West,271,8.0,-999.0,33,-99.99,,,0.01,weatherlink.com 1.10,2013-01-20 19:24:00,
2013-01-20 14:38:00,47.1,20.0,29.79,WSW,257,10.0,-999.0,34,-99.99,,,0.01,weatherlink.com 1.10,2013-01-20 19:38:00,
2013-01-20 14:55:00,47.4,20.0,29.80,West,271,9.0,-999.0,34,-99.99,,,0.01,weatherlink.com 1.10,2013-01-20 19:55:00,
2013-01-20 15:10:00,47.1,18.0,29.80,West,263,14.0,-999.0,32,-99.99,,,0.01,weatherlink.com 1.10,2013-01-20 20:10:00,
2013-01-20 15:25:00,45.9,15.0,29.82,WNW,288,14.0,-999.0,29,-99.99,,,0.01,weatherlink.com 1.10,2013-01-20 20:25:00,
2013-01-20 15:40:00,45.3,15.0,29.82,West,264,12.0,-999.0,29,-99.99,,,0.01,weatherlink.com 1.10,2013-01-20 20:40:00,
2013-01-20 15:58:00,44.3,18.0,29.84,NW,309,14.0,-999.0,35,-99.99,,,0.01,weatherlink.com 1.10,2013-01-20 20:58:00,
2013-01-20 16:10:00,43.5,18.0,29.86,West,280,11.0,-999.0,36,-99.99,,,0.01,weatherlink.com 1.10,2013-01-20 21:10:00,
2013-01-20 16:25:00,42.7,17.0,29.87,WNW,282,7.0,-999.0,36,-99.99,,,0.01,weatherlink.com 1.10,2013-01-20 21:25:00,
2013-01-20 16:40:00,41.9,15.0,29.88,West,279,7.0,-999.0,34,-99.99,,,0.01,weatherlink.com 1.10,2013-01-20 21:40:00,
2013-01-20 16:57:00,41.0,14.0,29.89,WSW,248,9.0,-999.0,34,-99.99,,,0.01,weatherlink.com 1.10,2013-01-20 21:57:00,
2013-01-20 17:11:00,40.1,16.0,29.90,NW,314,12.0,-999.0,37,-99.99,,,0.01,weatherlink.com 1.10,2013-01-20 22:11:00,
2013-01-20 17:26:00,39.2,17.0,29.91,West,277,8.0,-999.0,40,-99.99,,,0.01,weatherlink.com 1.10,2013-01-20 22:26:00,
2013-01-20 17:42:00,38.0,16.0,29.92,WNW,285,10.0,-999.0,40,-99.99,,,0.01,weatherlink.com 1.10,2013-01-20 22:42:00,
2013-01-20 18:12:00,36.4,16.0,29.94,West,281,9.0,-999.0,44,-99.99,,,0.01,weatherlink.com 1.10,2013-01-20 23:12:00,
2013-01-20 18:28:00,35.9,17.0,29.95,West,281,7.0,-999.0,46,-99.99,,,0.01,weatherlink.com 1.10,2013-01-20 23:28:00,
2013-01-20 18:43:00,35.3,17.0,29.96,WNW,299,8.0,-999.0,47,-99.99,,,0.01,weatherlink.com 1.10,2013-01-20 23:43:00,
2013-01-20 18:58:00,34.7,17.0,29.97,WNW,284,5.0,-999.0,48,-99.99,,,0.01,weatherlink.com 1.10,2013-01-20 23:58:00,
2013-01-20 19:13:00,34.0,17.0,29.98,WNW,302,7.0,-999.0,49,-99.99,,,0.01,weatherlink.com 1.10,2013-01-21 00:13:00,
2013-01-20 19:30:00,33.3,16.0,29.99,WNW,288,4.0,-999.0,49,-99.99,,,0.01,weatherlink.com 1.10,2013-01-21 00:30:00,
2013-01-20 19:45:00,32.7,15.0,30.00,WNW,297,5.0,-999.0,48,-99.99,,,0.01,weatherlink.com 1.10,2013-01-21 00:45:00,
2013-01-20 20:00:00,32.3,14.0,30.00,West,281,9.0,-999.0,48,-99.99,,,0.01,weatherlink.com 1.10,2013-01-21 01:00:00,
2013-01-20 20:15:00,31.9,14.0,30.01,West,268,6.0,-999.0,48,-99.99,,,0.01,weatherlink.com 1.10,2013-01-21 01:15:00,
2013-01-20 20:30:00,31.3,14.0,30.02,West,276,8.0,-999.0,50,-99.99,,,0.01,weatherlink.com 1.10,2013-01-21 01:30:00,
2013-01-20 20:45:00,31.0,14.0,30.02,WNW,299,11.0,-999.0,50,-99.99,,,0.01,weatherlink.com 1.10,2013-01-21 01:45:00,
2013-01-20 21:00:00,30.7,14.0,30.02,WNW,284,8.0,-999.0,51,-99.99,,,0.01,weatherlink.com 1.10,2013-01-21 02:00:00,
2013-01-20 21:18:00,30.1,14.0,30.02,WNW,303,10.0,-999.0,52,-99.99,,,0.01,weatherlink.com 1.10,2013-01-21 02:18:00,
2013-01-20 21:31:00,29.8,14.0,30.02,West,267,7.0,-999.0,53,-99.99,,,0.01,weatherlink.com 1.10,2013-01-21 02:31:00,
2013-01-20 22:01:00,28.8,14.0,30.03,West,278,9.0,-999.0,54,-99.99,,,0.01,weatherlink.com 1.10,2013-01-21 03:01:00,
2013-01-20 22:17:00,28.4,14.0,30.04,West,277,9.0,-999.0,55,-99.99,,,0.01,weatherlink.com 1.10,2013-01-21 03:17:00,
2013-01-20 22:32:00,28.1,13.0,30.03,West,279,5.0,-999.0,54,-99.99,,,0.01,weatherlink.com 1.10,2013-01-21 03:32:00,
2013-01-20 22:47:00,27.8,13.0,30.04,WNW,284,7.0,-999.0,55,-99.99,,,0.01,weatherlink.com 1.10,2013-01-21 03:47:00,
2013-01-20 23:03:00,27.6,13.0,30.04,West,273,7.0,-999.0,54,-99.99,,,0.01,weatherlink.com 1.10,2013-01-21 04:03:00,
2013-01-20 23:18:00,27.3,13.0,30.04,West,275,8.0,-999.0,55,-99.99,,,0.01,weatherlink.com 1.10,2013-01-21 04:18:00,
2013-01-20 23:33:00,26.9,13.0,30.05,West,271,13.0,-999.0,56,-99.99,,,0.01,weatherlink.com 1.10,2013-01-21 04:33:00,
2013-01-20 23:48:00,26.6,13.0,30.05,WNW,284,9.0,-999.0,57,-99.99,,,0.01,weatherlink.com 1.10,2013-01-21 04:48:00,